FW8113 Weather Reports


Display with metric or nautical units.
time (UTC)temp
F
wind
direction
speed
MPH
gust
MPH
rain 1hr
in
rain 24hr
in
rain mn
in
humidity
%
barometer
mb
20260505090119 58 113 0.0 0.0 0.00 0.00 0.00 63 1007.3
20260505085616 58 97 0.0 0.0 0.00 0.00 0.00 63 1006.9
20260505085114 58 75 0.0 0.0 0.00 0.00 0.00 63 1007.3
20260505084612 58 104 0.0 0.0 0.00 0.00 0.00 63 1006.9
20260505084110 58 108 0.0 0.0 0.00 0.00 0.00 62 1006.9
20260505083607 59 101 0.0 0.0 0.00 0.00 0.00 62 1007.3
20260505083103 59 96 0.0 0.0 0.00 0.00 0.00 62 1007.3
20260505082559 59 119 0.0 0.0 0.00 0.00 0.00 62 1007.3
20260505082057 59 104 0.0 0.0 0.00 0.00 0.00 61 1007.3
20260505081553 59 110 0.0 0.0 0.00 0.00 0.00 61 1007.3
20260505081050 59 108 0.0 0.0 0.00 0.00 0.00 62 1007.3
20260505080546 59 66 1.0 2.0 0.00 0.00 0.00 61 1007.3
20260505080043 59 96 0.0 0.0 0.00 0.00 0.00 61 1007.3
20260505075539 59 110 1.0 2.0 0.00 0.00 0.00 61 1007.3
20260505075036 58 93 0.0 0.0 0.00 0.00 0.00 62 1007.3
20260505074533 59 100 0.0 0.0 0.00 0.00 0.00 61 1007.3
20260505074030 59 77 1.0 3.0 0.00 0.00 0.00 62 1007.3
20260505073527 59 48 0.0 2.0 0.00 0.00 0.00 61 1007.3
20260505073026 58 50 0.0 0.0 0.00 0.00 0.00 61 1007.3
20260505072521 58 95 0.0 0.0 0.00 0.00 0.00 61 1006.9
20260505072017 58 92 0.0 0.0 0.00 0.00 0.00 61 1007.3
20260505071513 58 116 0.0 0.0 0.00 0.00 0.00 61 1007.3
20260505071012 59 104 0.0 0.0 0.00 0.00 0.00 61 1006.9
20260505070509 59 187 3.0 3.0 0.00 0.00 0.00 60 1007.3
20260505070004 59 111 0.0 0.0 0.00 0.00 0.00 61 1007.6
20260505065500 59 124 0.0 0.0 0.00 0.00 0.00 60 1007.3
20260505064957 59 103 0.0 0.0 0.00 0.00 0.00 61 1006.9
20260505064454 59 67 1.0 3.0 0.00 0.00 0.00 60 1006.9
20260505063952 59 96 0.0 0.0 0.00 0.00 0.00 61 1007.3
20260505063449 59 90 0.0 0.0 0.00 0.00 0.00 60 1007.3
20260505062945 59 128 0.0 0.0 0.00 0.00 0.00 60 1007.3
20260505062442 59 104 0.0 0.0 0.00 0.00 0.00 61 1007.3
20260505061939 59 111 0.0 0.0 0.00 0.00 0.00 61 1007.3
20260505061437 59 100 0.0 0.0 0.00 0.00 0.00 60 1007.3
20260505060934 59 95 0.0 0.0 0.00 0.00 0.00 61 1007.3
20260505060431 59 89 0.0 0.0 0.00 0.00 0.00 60 1007.3
20260505055927 59 103 0.0 0.0 0.00 0.00 0.00 60 1007.6
20260505055424 59 102 0.0 0.0 0.00 0.00 0.00 60 1007.3
20260505054921 59 86 0.0 0.0 0.00 0.00 0.00 60 1007.6
20260505054418 59 76 0.0 0.0 0.00 0.00 0.00 59 1007.6
20260505053916 59 18 0.0 2.0 0.00 0.00 0.00 59 1007.6
20260505053413 59 124 0.0 2.0 0.00 0.00 0.00 59 1007.6
20260505052909 59 89 0.0 0.0 0.00 0.00 0.00 59 1007.6
20260505052406 60 84 0.0 0.0 0.00 0.00 0.00 59 1007.6
20260505051903 60 105 0.0 0.0 0.00 0.00 0.00 59 1007.3
20260505051401 60 114 0.0 0.0 0.00 0.00 0.00 58 1007.6
20260505050859 60 122 0.0 0.0 0.00 0.00 0.00 58 1007.6
20260505050357 60 111 0.0 0.0 0.00 0.00 0.00 58 1007.6
20260505041324 61 85 0.0 2.0 0.00 0.00 0.00 54 1007.3
20260505040821 61 117 0.0 0.0 0.00 0.00 0.00 55 1007.3
20260505040319 61 118 1.0 3.0 0.00 0.00 0.00 55 1007.3
20260505035815 61 109 0.0 0.0 0.00 0.00 0.00 55 1007.3
20260505035311 61 171 1.0 3.0 0.00 0.00 0.00 55 1007.3
20260505034809 61 108 0.0 0.0 0.00 0.00 0.00 54 1007.3
20260505034305 61 144 1.0 3.0 0.00 0.00 0.00 53 1007.6
20260505033802 61 87 1.0 2.0 0.00 0.00 0.00 54 1007.3
20260505033259 61 115 0.0 0.0 0.00 0.00 0.00 53 1007.3
20260505032758 61 96 0.0 2.0 0.00 0.00 0.00 54 1007.6
20260505032253 62 142 0.0 2.0 0.00 0.00 0.00 54 1007.3
20260505031750 61 22 1.0 2.0 0.00 0.00 0.00 54 1007.3
20260505031246 61 111 1.0 3.0 0.00 0.00 0.00 55 1007.3
20260505030744 61 174 0.0 0.0 0.00 0.00 0.00 55 1007.3
20260505030240 61 120 0.0 0.0 0.00 0.00 0.00 55 1007.3
20260505025736 61 123 0.0 0.0 0.00 0.00 0.00 55 1007.3
20260505025234 61 140 0.0 2.0 0.00 0.00 0.00 54 1007.3
20260505024732 61 124 0.0 0.0 0.00 0.00 0.00 55 1007.3
20260505024229 61 127 0.0 0.0 0.00 0.00 0.00 55 1007.3
20260505023726 61 136 0.0 0.0 0.00 0.00 0.00 54 1007.3
20260505023223 61 125 0.0 0.0 0.00 0.00 0.00 55 1007.3
20260505022721 61 119 0.0 0.0 0.00 0.00 0.00 54 1007.3
20260505022218 61 96 0.0 0.0 0.00 0.00 0.00 54 1007.3
20260505021714 61 86 0.0 2.0 0.00 0.00 0.00 53 1007.3
20260505021212 61 113 0.0 0.0 0.00 0.00 0.00 54 1007.6
20260505020707 61 136 0.0 0.0 0.00 0.00 0.00 54 1007.6
20260505020203 61 138 0.0 0.0 0.00 0.00 0.00 53 1007.3
20260505015700 62 140 0.0 0.0 0.00 0.00 0.00 53 1007.6
20260505015157 62 143 0.0 0.0 0.00 0.00 0.00 52 1007.3
20260505014654 62 147 0.0 0.0 0.00 0.00 0.00 51 1007.6
20260505014151 62 104 0.0 0.0 0.00 0.00 0.00 51 1007.3
20260505013648 63 145 0.0 0.0 0.00 0.00 0.00 51 1007.3
20260505013145 63 147 0.0 2.0 0.00 0.00 0.00 51 1007.6
20260505012643 63 104 0.0 0.0 0.00 0.00 0.00 51 1007.3
20260505012140 63 122 0.0 0.0 0.00 0.00 0.00 50 1006.9
20260505011636 63 126 1.0 2.0 0.00 0.00 0.00 50 1006.9
20260505011134 63 118 0.0 0.0 0.00 0.00 0.00 51 1006.9
20260505010633 63 111 0.0 0.0 0.00 0.00 0.00 50 1006.9
20260505010131 63 118 0.0 0.0 0.00 0.00 0.00 50 1006.9
20260505005627 63 105 0.0 0.0 0.00 0.00 0.00 48 1006.9
20260505005124 63 125 0.0 0.0 0.00 0.00 0.00 49 1006.9
20260505004621 64 109 0.0 0.0 0.00 0.00 0.00 49 1006.9
20260505004118 64 107 0.0 0.0 0.00 0.00 0.00 48 1006.6
20260505003615 65 107 0.0 0.0 0.00 0.00 0.00 47 1006.9
20260505003112 65 106 0.0 0.0 0.00 0.00 0.00 46 1006.6
20260505002608 65 102 0.0 0.0 0.00 0.00 0.00 46 1006.6
20260505002107 65 105 0.0 0.0 0.00 0.00 0.00 45 1006.6
20260505001603 65 104 0.0 0.0 0.00 0.00 0.00 45 1006.6
20260505001101 65 114 0.0 0.0 0.00 0.00 0.00 46 1006.6
20260505000558 65 109 0.0 0.0 0.00 0.00 0.00 45 1006.6
20260505000055 66 112 0.0 0.0 0.00 0.00 0.00 45 1006.3
20260504235552 66 104 0.0 0.0 0.00 0.00 0.00 45 1006.3
20260504235049 67 104 0.0 0.0 0.00 0.00 0.00 42 1006.3
20260504234546 67 109 0.0 0.0 0.00 0.00 0.00 43 1006.3
20260504234043 68 107 0.0 0.0 0.00 0.00 0.00 43 1006.3
20260504233538 68 114 0.0 0.0 0.00 0.00 0.00 43 1005.9
20260504233035 68 120 0.0 0.0 0.00 0.00 0.00 42 1005.9
20260504232532 68 108 0.0 0.0 0.00 0.00 0.00 42 1005.9
20260504232030 69 114 0.0 0.0 0.00 0.00 0.00 41 1006.3
20260504231526 69 100 0.0 0.0 0.00 0.00 0.00 41 1005.9
20260504231022 69 119 0.0 0.0 0.00 0.00 0.00 40 1005.9
20260504230519 70 99 0.0 0.0 0.00 0.00 0.00 39 1005.6
20260504230018 70 94 0.0 2.0 0.00 0.00 0.00 39 1005.9
20260504225514 71 112 0.0 2.0 0.00 0.00 0.00 37 1005.6
20260504225012 71 126 0.0 0.0 0.00 0.00 0.00 39 1005.6
20260504224508 72 108 0.0 0.0 0.00 0.00 0.00 37 1005.6
20260504224005 74 36 3.0 3.0 0.00 0.00 0.00 35 1005.6
20260504223502 75 115 0.0 0.0 0.00 0.00 0.00 34 1005.6
20260504222957 75 140 0.0 2.0 0.00 0.00 0.00 33 1005.6
20260504222455 75 145 2.0 2.0 0.00 0.00 0.00 32 1005.6
20260504221952 75 99 0.0 2.0 0.00 0.00 0.00 31 1005.3
20260504221449 75 164 1.0 2.0 0.00 0.00 0.00 34 1005.6
20260504220946 75 97 0.0 0.0 0.00 0.00 0.00 32 1005.6
20260504220442 75 170 3.0 5.0 0.00 0.00 0.00 33 1005.6
20260504215940 75 86 2.0 3.0 0.00 0.00 0.00 33 1005.6
20260504215436 75 112 3.0 3.0 0.00 0.00 0.00 33 1005.6
20260504214933 75 193 3.0 3.0 0.00 0.00 0.00 34 1005.6
20260504214429 75 103 6.0 9.0 0.00 0.00 0.00 33 1005.6
20260504213926 74 101 3.0 3.0 0.00 0.00 0.00 35 1005.6
20260504213422 72 116 0.0 0.0 0.00 0.00 0.00 36 1005.9
20260504212920 73 105 0.0 2.0 0.00 0.00 0.00 35 1005.6
20260504212415 73 143 1.0 2.0 0.00 0.00 0.00 35 1005.6
20260504211914 73 118 1.0 3.0 0.00 0.00 0.00 35 1005.9
20260504211409 74 134 0.0 0.0 0.00 0.00 0.00 35 1005.6
20260504210907 73 159 3.0 3.0 0.00 0.00 0.00 36 1005.9
20260504210404 74 96 0.0 0.0 0.00 0.00 0.00 34 1005.9
20260504205900 74 119 0.0 0.0 0.00 0.00 0.00 33 1005.9
20260504205358 74 170 1.0 3.0 0.00 0.00 0.00 33 1005.9
20260504204857 73 115 0.0 0.0 0.00 0.00 0.00 38 1005.9
20260504204354 73 77 2.0 3.0 0.00 0.00 0.00 35 1005.9
20260504203854 73 106 0.0 0.0 0.00 0.00 0.00 37 1005.9
20260504203350 73 110 1.0 2.0 0.00 0.00 0.00 35 1005.9
20260504202846 73 86 3.0 5.0 0.00 0.00 0.00 36 1005.9
20260504202343 72 43 1.0 2.0 0.00 0.00 0.00 36 1006.3
20260504201839 73 150 3.0 3.0 0.00 0.00 0.00 36 1006.3
20260504201337 73 119 3.0 5.0 0.00 0.00 0.00 34 1006.3
20260504200835 73 121 0.0 0.0 0.00 0.00 0.00 37 1006.3
20260504200331 73 110 2.0 3.0 0.00 0.00 0.00 35 1006.3
20260504195827 72 79 1.0 2.0 0.00 0.00 0.00 36 1006.3
20260504195323 72 186 4.0 5.0 0.00 0.00 0.00 37 1006.6
20260504194820 72 84 0.0 0.0 0.00 0.00 0.00 37 1006.3
20260504194316 72 105 2.0 3.0 0.00 0.00 0.00 36 1006.3
20260504193812 72 109 0.0 2.0 0.00 0.00 0.00 37 1006.3
20260504193310 72 142 2.0 5.0 0.00 0.00 0.00 35 1006.6
20260504192808 73 233 3.0 5.0 0.00 0.00 0.00 34 1006.3
20260504192306 74 38 6.0 12.0 0.00 0.00 0.00 34 1006.6
20260504191804 74 227 8.0 9.0 0.00 0.00 0.00 35 1006.6
20260504191301 74 210 3.0 3.0 0.00 0.00 0.00 38 1006.6
20260504190757 73 128 3.0 5.0 0.00 0.00 0.00 36 1006.6
20260504190253 71 112 1.0 2.0 0.00 0.00 0.00 36 1006.9
20260504185750 72 116 0.0 0.0 0.00 0.00 0.00 38 1006.6
20260504185247 72 116 0.0 0.0 0.00 0.00 0.00 36 1006.9
20260504184743 72 218 3.0 5.0 0.00 0.00 0.00 37 1006.9
20260504184239 71 86 0.0 2.0 0.00 0.00 0.00 38 1006.9
20260504183734 71 169 2.0 3.0 0.00 0.00 0.00 37 1006.9
20260504183232 71 83 1.0 2.0 0.00 0.00 0.00 37 1006.9
20260504182730 71 68 0.0 2.0 0.00 0.00 0.00 38 1006.9
20260504182227 70 141 1.0 2.0 0.00 0.00 0.00 40 1006.9
20260504181724 70 164 3.0 3.0 0.00 0.00 0.00 37 1006.9
20260504181221 70 110 0.0 0.0 0.00 0.00 0.00 39 1007.3
20260504180721 70 107 0.0 0.0 0.00 0.00 0.00 39 1006.9
20260504180219 70 109 2.0 3.0 0.00 0.00 0.00 38 1006.9
20260504175716 71 136 0.0 2.0 0.00 0.00 0.00 37 1006.9
20260504175213 71 108 0.0 0.0 0.00 0.00 0.00 39 1006.9
20260504174711 70 118 9.0 12.0 0.00 0.00 0.00 37 1007.3
20260504174208 70 112 1.0 2.0 0.00 0.00 0.00 38 1007.3
20260504173704 69 100 0.0 0.0 0.00 0.00 0.00 40 1007.3
20260504173202 70 129 2.0 3.0 0.00 0.00 0.00 37 1007.3
20260504172658 70 101 1.0 3.0 0.00 0.00 0.00 37 1007.6
20260504172155 71 123 11.0 19.0 0.00 0.00 0.00 36 1007.6
20260504171651 71 181 2.0 3.0 0.00 0.00 0.00 37 1007.6
20260504171148 70 119 1.0 3.0 0.00 0.00 0.00 36 1007.3
20260504170645 69 183 3.0 3.0 0.00 0.00 0.00 37 1007.6
20260504170142 68 178 2.0 3.0 0.00 0.00 0.00 40 1007.6
20260504151033 63 202 3.0 3.0 0.00 0.00 0.00 47 1009.0
20260504150531 64 112 0.0 0.0 0.00 0.00 0.00 49 1009.0
20260504140956 62 153 0.0 2.0 0.00 0.00 0.00 51 1009.7
20260504140453 62 131 0.0 2.0 0.00 0.00 0.00 50 1009.7
20260504130418 55 226 3.0 3.0 0.00 0.00 0.00 57 1010.0
20260504110305 45 104 0.0 0.0 0.00 0.00 0.00 77 1010.7
20260504100223 43 109 0.0 0.0 0.00 0.00 0.00 78 1010.7